User: anonymous   Login
Location: Unspecified
(0.0000°N, 0.0000°E)
Time: 07:09:40
(UTC+00:00)
Language:

UPM/SAT 1 - Orbit

View from above orbital plane
View from above orbital plane
View from above satellite
View from above satellite

Ground track
Ground track

The orbit data is extracted from the following two-line orbital elements,

1 23607U 95033C   18200.55239126 +.00000027 +00000-0 +11367-4 0  9993
2 23607 098.3523 053.5134 0007128 088.8884 271.3142 14.78307490238559
Epoch (UTC): 19 July 2018 13:15:26
Eccentricity: 0.0007128
inclination: 98.3523°
perigee height: 629 km
apogee height: 639 km
right ascension of ascending node: 53.5134°
argument of perigee: 88.8884°
revolutions per day: 14.78307490
mean anomaly at epoch: 271.3142°
orbit number at epoch: 23855

The dashed part of the orbit path shows where the satellite is in the earth's shadow,  

DLR